Weather observations for the past three days for
Emigrant Gap, Blue Canyon Nyack Airport
| Date | Time (pdt) | Wind (mph) | Vis. (mi.) | Weather | Sky Cond. | Temperature (ºF) | Relative Humidity | Wind Chill (°F) | Heat Index (°F) | Pressure | Precipitation (in) | ||||||
|---|---|---|---|---|---|---|---|---|---|---|---|---|---|---|---|---|---|
| Air | Dwpt | 6 hour | altimeter (in) | sea level (mb) | 1 hr | 3 hr | 6 hr | ||||||||||
| Max. | Min. | ||||||||||||||||
| 08 | 04:52 | Calm | 10.00 | Fair | CLR | 52 | 26.1 | 55.9 | 52 | 37% | 30.18 | 1015.5 | |||||
| 08 | 03:52 | Calm | 10.00 | Fair | CLR | 53.1 | 21 | 28% | 30.18 | 1015.2 | |||||||
| 08 | 02:52 | Calm | 10.00 | Fair | CLR | 54 | 21.9 | 29% | 30.18 | 1015.3 | |||||||
| 08 | 01:52 | Calm | 10.00 | Fair | CLR | 55.9 | 19 | 24% | 30.18 | 1015.0 | |||||||
| 08 | 00:52 | Calm | 10.00 | Fair | CLR | 54 | 24.1 | 31% | 30.19 | 1015.6 | |||||||
| 07 | 23:52 | Calm | 10.00 | Fair | CLR | 55 | 30.9 | 40% | 30.19 | 1015.6 | |||||||
| 07 | 22:52 | NE 3 | 10.00 | Fair | CLR | 54 | 44.1 | 64.9 | 53.1 | 69% | 30.2 | 1016.2 | |||||
| 07 | 21:52 | Calm | 10.00 | Fair | CLR | 55 | 48 | 77% | 30.21 | 1016.5 | |||||||
| 07 | 20:52 | Calm | 10.00 | Fair | CLR | 57 | 50 | 78% | 30.2 | 1016.3 | |||||||
| 07 | 19:52 | S 3 | 10.00 | Fair | CLR | 59 | 46 | 62% | 30.19 | 1015.5 | |||||||
| 07 | 18:52 | Vrbl 5 | 10.00 | Fair | CLR | 63 | 43 | 48% | 30.19 | 1015.7 | |||||||
| 07 | 17:52 | Calm | 10.00 | Fair | CLR | 64 | 37 | 37% | 30.19 | 1015.9 | |||||||
| 07 | 16:52 | W 8 | 10.00 | Fair | CLR | 64.9 | 42.1 | 66.9 | 63 | 43% | 30.19 | 1015.6 | |||||
| 07 | 15:52 | Vrbl 7 G 17 | 10.00 | Fair | CLR | 66 | 44.1 | 45% | 30.2 | 1015.4 | |||||||
| 07 | 14:52 | SW 7 | 10.00 | Fair | CLR | 66 | 46.9 | 50% | 30.21 | 1015.7 | |||||||
| 07 | 13:52 | SW 8 | 10.00 | Fair | CLR | 66 | 42.1 | 42% | 30.22 | 1015.7 | |||||||
| 07 | 12:52 | W 9 | 10.00 | Fair | CLR | 64.9 | 46 | 51% | 30.23 | 1016.5 | |||||||
| 07 | 11:52 | W 8 | 10.00 | Fair | CLR | 64 | 48 | 56% | 30.23 | 1016.7 | |||||||
| 07 | 10:52 | W 6 | 10.00 | Fair | CLR | 63 | 39.9 | 64 | 53.1 | 43% | 30.23 | 1017.0 | |||||
| 07 | 09:52 | SE 5 | 10.00 | Fair | CLR | 62.1 | 45 | 54% | 30.23 | 1016.8 | |||||||
| 07 | 08:52 | Calm | 10.00 | Fair | CLR | 61 | 44.1 | 54% | 30.22 | 1016.6 | |||||||
| 07 | 07:52 | Calm | 10.00 | Fair | CLR | 60.1 | 41 | 50% | 30.22 | 1016.4 | |||||||
| 07 | 06:52 | Calm | 10.00 | Fair | CLR | 55 | 37.9 | 53% | 30.2 | 1016.2 | |||||||
| 07 | 05:52 | Calm | 10.00 | Fair | CLR | 54 | 39 | 57% | 30.19 | 1015.6 | |||||||
| 07 | 04:52 | N 3 | 10.00 | Fair | CLR | 54 | 37.9 | 59 | 54 | 55% | 30.19 | 1015.9 | |||||
| 07 | 03:52 | N 3 | 10.00 | Fair | CLR | 55.9 | 39 | 53% | 30.2 | 1015.7 | |||||||
| 07 | 02:52 | NE 5 | 10.00 | Fair | CLR | 57.9 | 39 | 50% | 30.2 | 1015.8 | |||||||
| 07 | 01:52 | N 5 | 10.00 | Fair | CLR | 59 | 37.9 | 46% | 30.21 | 1016.3 | |||||||
| 07 | 00:52 | N 5 | 10.00 | Fair | CLR | 57 | 39 | 51% | 30.22 | 1016.7 | |||||||
| 06 | 23:52 | N 3 | 10.00 | Fair | CLR | 57 | 39.9 | 53% | 30.22 | 1016.9 | |||||||
| 06 | 22:52 | NW 5 | 10.00 | Fair | CLR | 57 | 39 | 64.9 | 57 | 51% | 30.22 | 1017.2 | |||||
| 06 | 21:52 | N 6 | 10.00 | Fair | CLR | 57.9 | 39 | 50% | 30.22 | 1016.9 | |||||||
| 06 | 20:52 | NW 7 | 10.00 | Fair | CLR | 59 | 41 | 51% | 30.21 | 1016.9 | |||||||
| 06 | 19:52 | N 6 | 10.00 | Fair | CLR | 60.1 | 45 | 58% | 30.2 | 1017.6 | |||||||
| 06 | 18:52 | NW 6 | 10.00 | Fair | CLR | 63 | 45 | 52% | 30.2 | 1018.1 | |||||||
| 06 | 17:52 | NW 6 | 10.00 | Fair | CLR | 64.9 | 48 | 54% | 30.19 | 1017.7 | |||||||
| 06 | 16:52 | Vrbl 7 | 10.00 | Fair | CLR | 64 | 52 | 64 | 57.9 | 65% | 30.19 | 1017.5 | |||||
| 06 | 15:52 | W 8 | 10.00 | Fair | CLR | 63 | 53.1 | 70% | 30.19 | 1017.6 | |||||||
| 06 | 14:52 | W 6 | 10.00 | Fair | CLR | 62.1 | 54 | 75% | 30.2 | 1018.3 | |||||||
| 06 | 13:52 | W 7 | 10.00 | Fair | CLR | 61 | 54 | 78% | 30.2 | 1018.3 | |||||||
| 06 | 12:52 | NW 3 | 10.00 | Fair | CLR | 61 | 54 | 78% | 30.2 | 1018.3 | |||||||
| 06 | 11:52 | Calm | 10.00 | Fair | CLR | 61 | 53.1 | 75% | 30.21 | 1018.5 | |||||||
| 06 | 10:52 | W 3 | 10.00 | Fair | CLR | 57.9 | 50 | 61 | 41 | 75% | 30.2 | 1018.5 | |||||
| 06 | 09:52 | NW 3 | 10.00 | Fair | CLR | 60.1 | 48 | 65% | 30.19 | 1017.8 | |||||||
| 06 | 08:52 | Vrbl 3 | 10.00 | Fair | CLR | 57 | 48 | 72% | 30.18 | 1018.0 | |||||||
| 06 | 07:52 | Calm | 10.00 | Fair | CLR | 46.9 | 46.9 | 100% | 30.17 | 1018.9 | |||||||
| 06 | 06:52 | Calm | 0.25 | Fog | VV001 | 41 | 41 | 100% | 30.15 | 1018.9 | |||||||
| 06 | 05:52 | Calm | 0.15 | Fog | VV002 | 41 | 41 | 100% | 30.15 | 1018.7 | |||||||
| 06 | 04:52 | Calm | 0.15 | Fog | VV002 | 42.1 | 42.1 | 43 | 42.1 | 100% | 30.13 | 1018.3 | |||||
| 06 | 03:52 | N 3 | 0.25 | Fog | VV002 | 42.1 | 42.1 | 100% | 30.13 | 1017.9 | |||||||
| 06 | 02:52 | Calm | 0.25 | Fog | VV002 | 42.1 | 42.1 | 100% | 30.12 | 1017.8 | |||||||
| 06 | 01:52 | Calm | 0.25 | Fog | VV002 | 43 | 43 | 100% | 30.12 | 1017.5 | |||||||
| 06 | 00:52 | Calm | 0.25 | Fog | VV002 | 43 | 43 | 100% | 30.12 | 1017.3 | |||||||
| 05 | 23:52 | Calm | 0.50 | Fog | VV002 | 43 | 43 | 100% | 30.11 | 1017.3 | |||||||
| 05 | 22:52 | Calm | 0.25 | Fog | VV002 | 43 | 43 | 46 | 43 | 100% | 30.1 | 1016.9 | |||||
| 05 | 21:52 | Calm | 0.15 | Fog | VV002 | 43 | 43 | 100% | 30.08 | 1016.4 | |||||||
| 05 | 20:52 | Calm | 0.15 | Fog | VV002 | 43 | 43 | 100% | 30.07 | 1016.3 | |||||||
| 05 | 19:52 | W 5 | 0.15 | Fog | VV002 | 44.1 | 44.1 | 100% | 42 | 30.05 | 1015.7 | ||||||
| 05 | 18:52 | S 3 | 0.15 | Fog | VV002 | 45 | 44.1 | 97% | 30.02 | 1014.6 | |||||||
| 05 | 17:52 | Calm | 0.15 | Fog | VV002 | 44.1 | 44.1 | 100% | 30.02 | 1014.9 | |||||||
| 05 | 16:52 | NW 3 | 0.15 | Fog | VV002 | 44.1 | 44.1 | 44.1 | 42.1 | 100% | 30.01 | 1014.5 | |||||
| 05 | 15:52 | W 5 | 0.15 | Fog | VV001 | 44.1 | 44.1 | 100% | 42 | 30.01 | 1014.4 | ||||||
| 05 | 14:52 | SW 6 | 0.15 | Fog | VV001 | 44.1 | 44.1 | 100% | 41 | 30.01 | 1014.5 | ||||||
| 05 | 13:52 | W 6 | 0.15 | Fog | VV001 | 44.1 | 44.1 | 100% | 41 | 30.01 | 1014.3 | ||||||
| 05 | 12:52 | W 5 | 0.15 | Fog | VV002 | 44.1 | 44.1 | 100% | 42 | 30 | 1014.2 | ||||||
| 05 | 11:52 | W 3 | 0.15 | Fog | VV002 | 43 | 43 | 100% | 30 | 1014.3 | |||||||
| 05 | 10:52 | NW 5 | 0.15 | Fog | VV002 | 42.1 | 42.1 | 42.1 | 37 | 100% | 40 | 29.99 | 1013.9 | ||||
| 05 | 09:52 | NW 3 | 1.25 | Fog/Mist | OVC003 | 42.1 | 41 | 96% | 29.98 | 1013.7 | |||||||
| 05 | 08:50 | NW 6 | 0.25 | Fog | BKN003 OVC011 | 41 | 39.9 | 96% | 38 | 29.97 | 1013.5 | ||||||
| 05 | 07:52 | Calm | 2.00 | Fog/Mist | OVC004 | 39 | 39 | 100% | 29.96 | 1013.1 | |||||||
| 05 | 06:52 | Calm | 0.25 | Fog | VV003 | 37.9 | 37 | 97% | 29.94 | 1012.6 | |||||||
| Date | Time (pdt) | Wind (mph) | Vis. (mi.) | Weather | Sky Cond. | Air | Dwpt | Max. | Min. | Relative Humidity | Wind Chill (°F) | Heat Index (°F) | altimeter (in) | sea level (mb) | 1 hr | 3 hr | 6 hr |
| 6 hour | |||||||||||||||||
| Temperature (ºF) | Pressure | Precipitation (in) | |||||||||||||||